Regional Weather Roundup
Issued by NWS Midland/Odessa, TX

Skip options and go directly to product.
Home | Oldest Version | Next Version | Current Version | All | Text Only | Save Text | Print | Product List | Glossary On

Skip product version selection by date and time.   
436
ASUS44 KMAF 011901
RWRMAF
MIDLAND AREA WEATHER ROUNDUP
NATIONAL WEATHER SERVICE MIDLAND TX
200 PM CDT SUN MAY 01 2016

...IN SOUTHWEST TEXAS AND SOUTHEAST NEW MEXICO...

CITY           SKY/WX    TMP DP  RH WIND       PRES   REMARKS
ALPINE         CLOUDY    51  37  57 NE16      30.14F
ANDREWS        CLOUDY    53  35  49 N12G18    30.12R
ARTESIA        CLOUDY    46  36  66 N18G24    30.20F WCI  39
BIG SPRING     CLOUDY    55  34  45 NE12G20   30.10R
CARLSBAD       CLOUDY    48  35  60 N20G26    30.17F
DRYDEN           N/A     65  49  56 N22G31    29.95R
FORT STOCKTON  CLOUDY    56  37  49 N13       30.09F
GUAD PASS      NOT AVBL
HOBBS          CLOUDY    46  36  66 N21G26    30.15F WCI  39
MARFA          SUNNY     57  37  47 NE24G30   30.04F
MIDLAND AIRPK  CLOUDY    56  34  43 NE14      30.10S
MIDLAND INTL   CLOUDY    56  34  43 NE15      30.09R
ODESSA         CLOUDY    55  33  43 NE16      30.10F
PECOS          CLOUDY    55  35  46 N14       30.12F
PRESIDIO       NOT AVBL
SEMINOLE       CLOUDY    51  35  55 N16G25    30.13F
SNYDER           N/A     60  38  44 NE16G23   30.07F
WINK           CLOUDY    55  34  45 N13       30.11S
$$
...OTHER STATIONS IN TEXAS...

CITY           SKY/WX    TMP DP  RH WIND       PRES   REMARKS
ABILENE        CLOUDY    64  41  42 N15G21    30.05F
AMARILLO       CLOUDY    45  36  70 N25G32    30.18F WCI  36
AUSTIN         CLOUDY    75  61  61 N20       29.90F
BROWNSVILLE    CLOUDY    87  75  67 SE7       29.75F
CORPUS CHRISTI PTSUNNY   90  71  53 E10       29.77F
DALLAS FTW     MOSUNNY   71  48  43 N12       30.02S
DEL RIO        CLOUDY    80  68  66 E10       29.83F
EL PASO        MOSUNNY   65  35  33 E16G28    30.00F
HOUSTON INT    CLOUDY    82  73  74 VRB7      29.84F
LUBBOCK        CLOUDY    51  36  56 N20G26    30.14F
SAN ANGELO     CLOUDY    66  46  48 NE14G23   30.02F
SAN ANTONIO    PTSUNNY   79  63  57 NE14      29.88F
WACO           PTSUNNY   74  52  46 NE14G22   29.97F
WICHITA FALLS  NOT AVBL
$$
...OTHER LOCATIONS IN NEW MEXICO...

CITY           SKY/WX    TMP DP  RH WIND       PRES   REMARKS
ALAMAGORDO     PTSUNNY   64  32  29 CALM      29.99F
ALBUQUERQUE    CLOUDY    49  29  46 E35G46    30.08F WCI  40
CANNON AFB     CLOUDY    41  39  95 NE18G29   30.19F WCI  32
CLOVIS         CLOUDY    41  34  75 N22G28    30.21S WCI  31
HOLLOMAN AFB   CLOUDY    63  33  32 W6        29.98F
ROSWELL        CLOUDY    45  37  73 N17       30.20F WCI  38
RUIDOSO          N/A     32  32 100 SE9       30.20F FOG     WCI  24
SANTA FE       CLOUDY    40  36  86 VRB7      30.13F WCI  35
TRUTH OR CONSE LGT RAIN  61  35  37 E14G23    29.98F
TUCUMCARI      LGT RAIN  44  38  79 NE13      30.22F WCI  38
$$

USA.gov is the U.S. government's official web portal to all federal, state and local government web resources and services.